STARLINK-1404, 45686

Orbit data source: Space-Track

STARLINK-1404, 45686 is a payload satellite owned by SpaceX/Seattle (US) in LEO that was launched on Thu, 04 Jun 2020 UTC via an FALCON 9 launch vehicle from the Air Force Eastern Test Range (AFETR). Payload-class satellites include a variety of spacecraft equipped with specific instruments for various scientific and technological missions. These include communications satellites like Starlink; space stations such as the ISS; scientific satellites like the Hubble; Earth observation satellites from companies like Planet Labs, Umbra, and HawkEye 360; GPS; miniature CubeSats for education and research; and military/defense satellites.

Loading next visibility...
Identifier
45686, 2020-035AF
Orbit
LEO
Country
Flag of USUS
Related business
Manufacturer
SpaceX/Seattle
Mission
Operational Commercial Communications
Bus & Motor
STARLINK, Unknown motor
Mass
260 kg wet, ~248 kg dry
Launch date (UTC)
2020-06-04 (5 years ago)
Launch vehicle
FALCON 9
Launch site
Air Force Eastern Test Range (AFETR)
Object type
Payload
Rocket body
Debris
Shape & HBR
Box + 1 Pan, 4.4 m
Radar Cross Section
13.562 m², Large (>1 m²)

Expand to show TLE details & history
Last TLE update: 1 day ago

TLE from 1 day ago
0 STARLINK-1404
1 45686U 20035AF  25258.04874780  .00002044  00000-0  15602-3 0  9996
2 45686  53.0538 125.1038 0001404  91.8380 268.2770 15.06406257292408
Epoch: 2025-09-15T01:10Z
TLE epoch observation values (Epoch: 2025-09-15T01:10:11.809Z)
Latitude
-0.00002°
Longitude
113.29559°
Altitude
548.101 km
Speed
7.589 km/s
True Right ascension
08h 20m 24s
True Declination
0° 00' 00"
Sunlit
Object was in daylight at epoch
Visualization orbit readout
Latitude
Unknown
Longitude
Unknown
Altitude
Unknown
Speed
Unknown
Apparent Right ascension
Unknown
Apparent Declination
Unknown
Sunlit
N/A
Visualization observer readout
Local Sidereal Time
19:41:09
Azimuth
Unknown
Elevation
Unknown
Doppler factor
Unknown
Orbital elements
Apogee altitude
548.436 km
Perigee altitude
546.491 km
Semi-major axis
6,925.6 km
Eccentricity
0.00014
Inclination
53.0538°
RAAN
125.1038°
Arg. of periapsis
91.838°
True anomaly
268.26092°
Mean anomaly
268.277°
Eccentric anomaly
268.26896°
Mean motion
3.7658 °/min
Orbital period
95.6 mins
BSTAR
0.00015602
Loading maneuver chart data...
Computing Atmospheric mass density...

Documentation

Showing up to 5 results
|